| time (UTC) | temp C | wind direction | speed KPH | gust KPH | rain 1hr cm | rain 24hr cm | rain mn cm | humidity % | barometer mb |
| 20260510021333 | 15 | 166 | 0.0 | 0.0 | 0.00 | 0.00 | 0.00 | 82 | 1008.8 |
| 20260510020737 | 15 | 170 | 0.0 | 3.2 | 0.00 | 0.00 | 0.00 | 82 | 1008.9 |
| 20260510015726 | 15 | 188 | 3.2 | 6.4 | 0.00 | 0.00 | 0.00 | 82 | 1008.9 |
| 20260510014733 | 15 | 157 | 0.0 | 6.4 | 0.00 | 0.00 | 0.00 | 82 | 1009.1 |
| 20260510014347 | 15 | 140 | 3.2 | 4.8 | 0.00 | 0.00 | 0.00 | 82 | 1009.0 |
| 20260510013732 | 15 | 155 | 1.6 | 8.0 | 0.00 | 0.00 | 0.00 | 82 | 1008.8 |
| 20260510012738 | 15 | 265 | 0.0 | 6.4 | 0.00 | 0.00 | 0.00 | 83 | 1008.9 |
| 20260510011746 | 15 | 280 | 3.2 | 9.7 | 0.00 | 0.00 | 0.00 | 84 | 1008.9 |
| 20260510011340 | 15 | 276 | 0.0 | 0.0 | 0.00 | 0.00 | 0.00 | 84 | 1008.9 |
| 20260510010726 | 15 | 307 | 0.0 | 0.0 | 0.00 | 0.00 | 0.00 | 84 | 1009.0 |
| 20260510005731 | 15 | 148 | 1.6 | 3.2 | 0.00 | 0.00 | 0.00 | 84 | 1009.2 |
| 20260510004759 | 15 | 128 | 0.0 | 0.0 | 0.00 | 0.00 | 0.00 | 84 | 1009.2 |
| 20260510004332 | 15 | 128 | 0.0 | 0.0 | 0.00 | 0.00 | 0.00 | 84 | 1009.4 |
| 20260510003721 | 15 | 128 | 0.0 | 0.0 | 0.00 | 0.00 | 0.00 | 84 | 1009.4 |
| 20260510002730 | 15 | 128 | 0.0 | 0.0 | 0.00 | 0.00 | 0.00 | 84 | 1009.4 |
| 20260510001738 | 15 | 128 | 0.0 | 0.0 | 0.00 | 0.00 | 0.00 | 84 | 1009.4 |
| 20260510001330 | 15 | 128 | 0.0 | 0.0 | 0.00 | 0.00 | 0.00 | 84 | 1009.4 |
| 20260510000739 | 15 | 128 | 0.0 | 0.0 | 0.00 | 0.00 | 0.00 | 84 | 1009.5 |
| 20260509235748 | 15 | 128 | 0.0 | 0.0 | 0.00 | 0.00 | 0.00 | 84 | 1009.5 |
| 20260509234736 | 15 | 128 | 0.0 | 19.3 | 0.00 | 0.00 | 0.00 | 85 | 1009.8 |
| 20260509234330 | 15 | 137 | 4.8 | 19.3 | 0.00 | 0.00 | 0.00 | 86 | 1010.0 |
| 20260509233735 | 14 | 171 | 4.8 | 11.3 | 0.00 | 0.00 | 0.00 | 86 | 1010.0 |
| 20260509232725 | 14 | 167 | 0.0 | 1.6 | 0.00 | 0.00 | 0.00 | 85 | 1009.5 |
| 20260509231728 | 15 | 167 | 1.6 | 6.4 | 0.00 | 0.00 | 0.00 | 84 | 1009.6 |
| 20260509231342 | 15 | 168 | 0.0 | 0.0 | 0.00 | 0.00 | 0.00 | 84 | 1009.8 |
| 20260509230728 | 15 | 168 | 0.0 | 0.0 | 0.00 | 0.00 | 0.00 | 84 | 1009.5 |
| 20260509225735 | 15 | 168 | 0.0 | 0.0 | 0.00 | 0.00 | 0.00 | 83 | 1009.5 |
| 20260509224723 | 15 | 168 | 0.0 | 0.0 | 0.00 | 0.00 | 0.00 | 80 | 1009.6 |
| 20260509224337 | 15 | 168 | 0.0 | 0.0 | 0.00 | 0.00 | 0.00 | 80 | 1009.5 |
| 20260509223723 | 15 | 168 | 0.0 | 0.0 | 0.00 | 0.00 | 0.00 | 81 | 1009.6 |
| 20260509222731 | 15 | 168 | 0.0 | 0.0 | 0.00 | 0.00 | 0.00 | 81 | 1009.6 |
| 20260509221736 | 15 | 168 | 0.0 | 0.0 | 0.00 | 0.00 | 0.00 | 80 | 1009.5 |
| 20260509221350 | 15 | 168 | 0.0 | 0.0 | 0.00 | 0.00 | 0.00 | 80 | 1009.5 |
| 20260509220735 | 15 | 168 | 0.0 | 0.0 | 0.00 | 0.00 | 0.00 | 79 | 1009.5 |
| 20260509215733 | 15 | 168 | 0.0 | 0.0 | 0.00 | 0.00 | 0.00 | 78 | 1009.6 |
| 20260509214743 | 15 | 168 | 0.0 | 0.0 | 0.00 | 0.00 | 0.00 | 79 | 1009.6 |
| 20260509214336 | 15 | 168 | 0.0 | 0.0 | 0.00 | 0.00 | 0.00 | 78 | 1009.6 |
| 20260509213725 | 15 | 168 | 0.0 | 0.0 | 0.00 | 0.00 | 0.00 | 77 | 1009.6 |
| 20260509212734 | 15 | 168 | 0.0 | 0.0 | 0.00 | 0.00 | 0.00 | 76 | 1009.7 |
| 20260509211744 | 16 | 168 | 0.0 | 0.0 | 0.00 | 0.00 | 0.00 | 76 | 1009.7 |
| 20260509211337 | 16 | 168 | 0.0 | 0.0 | 0.00 | 0.00 | 0.00 | 76 | 1009.6 |
| 20260509210747 | 16 | 168 | 0.0 | 0.0 | 0.00 | 0.00 | 0.00 | 76 | 1009.7 |
| 20260509205753 | 16 | 168 | 0.0 | 0.0 | 0.00 | 0.00 | 0.00 | 75 | 1009.7 |
| 20260509204740 | 16 | 168 | 0.0 | 0.0 | 0.00 | 0.00 | 0.00 | 74 | 1009.7 |
| 20260509204334 | 16 | 168 | 0.0 | 0.0 | 0.00 | 0.00 | 0.00 | 74 | 1009.6 |
| 20260509203723 | 17 | 168 | 0.0 | 0.0 | 0.00 | 0.00 | 0.00 | 73 | 1009.6 |
| 20260509202734 | 17 | 168 | 0.0 | 0.0 | 0.00 | 0.00 | 0.00 | 72 | 1009.6 |
| 20260509201741 | 17 | 168 | 0.0 | 0.0 | 0.00 | 0.00 | 0.00 | 71 | 1009.8 |
| 20260509201335 | 17 | 168 | 0.0 | 0.0 | 0.00 | 0.00 | 0.00 | 71 | 1009.7 |
| 20260509200724 | 18 | 168 | 0.0 | 0.0 | 0.00 | 0.00 | 0.00 | 70 | 1009.7 |
| 20260509195732 | 18 | 168 | 0.0 | 0.0 | 0.00 | 0.00 | 0.00 | 69 | 1009.6 |
| 20260509194741 | 18 | 168 | 0.0 | 0.0 | 0.00 | 0.00 | 0.00 | 68 | 1009.4 |
| 20260509194335 | 19 | 168 | 0.0 | 0.0 | 0.00 | 0.00 | 0.00 | 67 | 1009.3 |
| 20260509193745 | 20 | 168 | 0.0 | 0.0 | 0.00 | 0.00 | 0.00 | 66 | 1009.3 |
| 20260509192733 | 20 | 168 | 0.0 | 0.0 | 0.00 | 0.00 | 0.00 | 64 | 1009.3 |
| 20260509191740 | 21 | 168 | 0.0 | 0.0 | 0.00 | 0.00 | 0.00 | 61 | 1009.2 |
| 20260509191334 | 21 | 168 | 0.0 | 0.0 | 0.00 | 0.00 | 0.00 | 60 | 1009.2 |
| 20260509190723 | 21 | 168 | 0.0 | 0.0 | 0.00 | 0.00 | 0.00 | 59 | 1009.2 |
| 20260509185731 | 21 | 168 | 0.0 | 0.0 | 0.00 | 0.00 | 0.00 | 57 | 1009.2 |
| 20260509184739 | 22 | 168 | 0.0 | 0.0 | 0.00 | 0.00 | 0.00 | 55 | 1009.1 |
| 20260509184333 | 22 | 168 | 0.0 | 0.0 | 0.00 | 0.00 | 0.00 | 54 | 1009.2 |
| 20260509183741 | 22 | 164 | 0.0 | 1.6 | 0.00 | 0.00 | 0.00 | 54 | 1009.1 |
| 20260509182731 | 22 | 180 | 0.0 | 4.8 | 0.00 | 0.00 | 0.00 | 53 | 1009.1 |
| 20260509181738 | 22 | 175 | 0.0 | 0.0 | 0.00 | 0.00 | 0.00 | 52 | 1008.9 |
| 20260509181332 | 22 | 175 | 0.0 | 0.0 | 0.00 | 0.00 | 0.00 | 52 | 1008.9 |
| 20260509180740 | 22 | 173 | 0.0 | 0.0 | 0.00 | 0.00 | 0.00 | 51 | 1009.0 |
| 20260509175729 | 23 | 173 | 1.6 | 6.4 | 0.00 | 0.00 | 0.00 | 50 | 1008.9 |
| 20260509174738 | 23 | 171 | 1.6 | 8.0 | 0.00 | 0.00 | 0.00 | 48 | 1008.9 |
| 20260509174352 | 23 | 171 | 1.6 | 6.4 | 0.00 | 0.00 | 0.00 | 49 | 1008.9 |
| 20260509173739 | 23 | 144 | 0.0 | 4.8 | 0.00 | 0.00 | 0.00 | 48 | 1008.8 |
| 20260509172729 | 23 | 148 | 0.0 | 0.0 | 0.00 | 0.00 | 0.00 | 47 | 1008.7 |
| 20260509171732 | 24 | 137 | 0.0 | 0.0 | 0.00 | 0.00 | 0.00 | 46 | 1008.8 |
| 20260509171327 | 24 | 136 | 0.0 | 9.7 | 0.00 | 0.00 | 0.00 | 46 | 1008.8 |
| 20260509170735 | 24 | 142 | 0.0 | 9.7 | 0.00 | 0.00 | 0.00 | 44 | 1008.7 |
| 20260509165802 | 25 | 146 | 0.0 | 12.9 | 0.00 | 0.00 | 0.00 | 44 | 1008.8 |
| 20260509164729 | 25 | 127 | 3.2 | 11.3 | 0.00 | 0.00 | 0.00 | 43 | 1008.9 |
| 20260509164340 | 25 | 130 | 0.0 | 0.0 | 0.00 | 0.00 | 0.00 | 44 | 1008.9 |
| 20260509163749 | 25 | 128 | 0.0 | 3.2 | 0.00 | 0.00 | 0.00 | 46 | 1009.0 |
| 20260509162757 | 25 | 107 | 0.0 | 4.8 | 0.00 | 0.00 | 0.00 | 43 | 1008.9 |
| 20260509161801 | 25 | 96 | 0.0 | 12.9 | 0.00 | 0.00 | 0.00 | 44 | 1009.0 |
| 20260509161333 | 25 | 142 | 1.6 | 12.9 | 0.00 | 0.00 | 0.00 | 42 | 1009.1 |
| 20260509160742 | 25 | 53 | 0.0 | 1.6 | 0.00 | 0.00 | 0.00 | 42 | 1009.1 |
| 20260509155726 | 25 | 58 | 0.0 | 4.8 | 0.00 | 0.00 | 0.00 | 42 | 1009.2 |
| 20260509154732 | 25 | 180 | 0.0 | 4.8 | 0.00 | 0.00 | 0.00 | 42 | 1009.2 |
| 20260509154326 | 25 | 119 | 0.0 | 8.0 | 0.00 | 0.00 | 0.00 | 43 | 1009.3 |
| 20260509153751 | 25 | 137 | 1.6 | 8.0 | 0.00 | 0.00 | 0.00 | 44 | 1009.4 |
| 20260509152736 | 25 | 51 | 0.0 | 11.3 | 0.00 | 0.00 | 0.00 | 44 | 1009.6 |
| 20260509151739 | 25 | 159 | 0.0 | 4.8 | 0.00 | 0.00 | 0.00 | 45 | 1009.7 |
| 20260509151353 | 25 | 259 | 0.0 | 12.9 | 0.00 | 0.00 | 0.00 | 43 | 1009.8 |
| 20260509150741 | 25 | 148 | 1.6 | 14.5 | 0.00 | 0.00 | 0.00 | 44 | 1009.8 |
| 20260509145732 | 25 | 63 | 0.0 | 11.3 | 0.00 | 0.00 | 0.00 | 45 | 1009.9 |
| 20260509144723 | 24 | 150 | 1.6 | 9.7 | 0.00 | 0.00 | 0.00 | 44 | 1009.9 |
| 20260509144338 | 24 | 132 | 0.0 | 6.4 | 0.00 | 0.00 | 0.00 | 45 | 1009.9 |
| 20260509143802 | 24 | 176 | 0.0 | 11.3 | 0.00 | 0.00 | 0.00 | 43 | 1009.9 |
| 20260509142728 | 24 | 144 | 0.0 | 8.0 | 0.00 | 0.00 | 0.00 | 42 | 1010.0 |
| 20260509141733 | 25 | 168 | 0.0 | 12.9 | 0.00 | 0.00 | 0.00 | 42 | 1010.1 |
| 20260509141328 | 25 | 221 | 3.2 | 12.9 | 0.00 | 0.00 | 0.00 | 44 | 1010.2 |
| 20260509140734 | 25 | 187 | 1.6 | 12.9 | 0.00 | 0.00 | 0.00 | 43 | 1010.3 |
| 20260509135740 | 25 | 243 | 1.6 | 9.7 | 0.00 | 0.00 | 0.00 | 42 | 1010.3 |
| 20260509134729 | 25 | 138 | 0.0 | 4.8 | 0.00 | 0.00 | 0.00 | 46 | 1010.4 |
| 20260509134344 | 25 | 149 | 0.0 | 3.2 | 0.00 | 0.00 | 0.00 | 45 | 1010.4 |
| 20260509133730 | 25 | 150 | 0.0 | 4.8 | 0.00 | 0.00 | 0.00 | 49 | 1010.5 |
| 20260509132739 | 26 | 143 | 3.2 | 11.3 | 0.00 | 0.00 | 0.00 | 42 | 1010.7 |
| 20260509131747 | 26 | 83 | 0.0 | 4.8 | 0.00 | 0.00 | 0.00 | 41 | 1010.7 |
| 20260509131400 | 26 | 126 | 0.0 | 11.3 | 0.00 | 0.00 | 0.00 | 43 | 1010.7 |
| 20260509130725 | 26 | 142 | 1.6 | 11.3 | 0.00 | 0.00 | 0.00 | 43 | 1010.6 |
| 20260509125734 | 26 | 143 | 0.0 | 6.4 | 0.00 | 0.00 | 0.00 | 44 | 1010.5 |
| 20260509124739 | 26 | 186 | 0.0 | 9.7 | 0.00 | 0.00 | 0.00 | 44 | 1010.5 |
| 20260509124331 | 26 | 151 | 1.6 | 8.0 | 0.00 | 0.00 | 0.00 | 43 | 1010.6 |
| 20260509123735 | 26 | 147 | 0.0 | 1.6 | 0.00 | 0.00 | 0.00 | 42 | 1010.6 |
| 20260509122737 | 26 | 150 | 1.6 | 8.0 | 0.00 | 0.00 | 0.00 | 45 | 1010.7 |
| 20260509121724 | 26 | 146 | 0.0 | 16.1 | 0.00 | 0.00 | 0.00 | 43 | 1010.7 |
| 20260509121405 | 25 | 150 | 0.0 | 16.1 | 0.00 | 0.00 | 0.00 | 42 | 1010.7 |
| 20260509120731 | 26 | 238 | 3.2 | 9.7 | 0.00 | 0.00 | 0.00 | 43 | 1010.8 |
| 20260509115736 | 26 | 54 | 1.6 | 4.8 | 0.00 | 0.00 | 0.00 | 44 | 1011.0 |
| 20260509114741 | 25 | 68 | 0.0 | 4.8 | 0.00 | 0.00 | 0.00 | 45 | 1011.1 |
| 20260509114355 | 25 | 140 | 0.0 | 9.7 | 0.00 | 0.00 | 0.00 | 45 | 1011.1 |
| 20260509113739 | 25 | 142 | 1.6 | 9.7 | 0.00 | 0.00 | 0.00 | 45 | 1011.2 |
| 20260509112848 | 25 | 130 | 1.6 | 11.3 | 0.00 | 0.00 | 0.00 | 45 | 1011.3 |
| 20260509111733 | 25 | 142 | 1.6 | 12.9 | 0.00 | 0.00 | 0.00 | 48 | 1011.3 |
| 20260509111344 | 25 | 154 | 1.6 | 12.9 | 0.00 | 0.00 | 0.00 | 49 | 1011.3 |
| 20260509110728 | 25 | 123 | 0.0 | 11.3 | 0.00 | 0.00 | 0.00 | 47 | 1011.4 |
| 20260509105726 | 24 | 74 | 0.0 | 6.4 | 0.00 | 0.00 | 0.00 | 49 | 1011.7 |
| 20260509104751 | 23 | 132 | 0.0 | 3.2 | 0.00 | 0.00 | 0.00 | 50 | 1011.8 |
| 20260509104341 | 23 | 66 | 0.0 | 1.6 | 0.00 | 0.00 | 0.00 | 49 | 1011.8 |
| 20260509103745 | 23 | 86 | 0.0 | 4.8 | 0.00 | 0.00 | 0.00 | 48 | 1011.8 |
| 20260509102724 | 23 | 71 | 1.6 | 6.4 | 0.00 | 0.00 | 0.00 | 49 | 1011.9 |
| 20260509101742 | 23 | 204 | 1.6 | 8.0 | 0.00 | 0.00 | 0.00 | 52 | 1012.0 |
| 20260509101334 | 23 | 173 | 1.6 | 8.0 | 0.00 | 0.00 | 0.00 | 49 | 1012.0 |
| 20260509100737 | 22 | 175 | 0.0 | 4.8 | 0.00 | 0.00 | 0.00 | 53 | 1011.9 |
| 20260509095736 | 22 | 189 | 0.0 | 3.2 | 0.00 | 0.00 | 0.00 | 53 | 1012.0 |
| 20260509094738 | 21 | 171 | 0.0 | 1.6 | 0.00 | 0.00 | 0.00 | 57 | 1012.0 |
| 20260509094349 | 21 | 61 | 0.0 | 3.2 | 0.00 | 0.00 | 0.00 | 57 | 1012.0 |
| 20260509093732 | 20 | 219 | 0.0 | 8.0 | 0.00 | 0.00 | 0.00 | 57 | 1012.0 |
| 20260509092732 | 19 | 146 | 0.0 | 3.2 | 0.00 | 0.00 | 0.00 | 60 | 1012.1 |
| 20260509091751 | 18 | 225 | 0.0 | 1.6 | 0.00 | 0.00 | 0.00 | 60 | 1012.1 |
| 20260509091340 | 18 | 236 | 0.0 | 1.6 | 0.00 | 0.00 | 0.00 | 62 | 1012.1 |
| 20260509090724 | 18 | 254 | 0.0 | 1.6 | 0.00 | 0.00 | 0.00 | 64 | 1012.1 |
| 20260509085726 | 17 | 149 | 0.0 | 0.0 | 0.00 | 0.00 | 0.00 | 64 | 1012.1 |
| 20260509084748 | 17 | 157 | 0.0 | 1.6 | 0.00 | 0.00 | 0.00 | 68 | 1012.2 |
| 20260509084355 | 17 | 230 | 0.0 | 1.6 | 0.00 | 0.00 | 0.00 | 69 | 1012.2 |
| 20260509083742 | 16 | 202 | 0.0 | 4.8 | 0.00 | 0.00 | 0.00 | 70 | 1012.4 |
| 20260509082802 | 16 | 112 | 0.0 | 0.0 | 0.00 | 0.00 | 0.00 | 74 | 1012.5 |
| 20260509081724 | 15 | 61 | 0.0 | 0.0 | 0.00 | 0.00 | 0.00 | 75 | 1012.5 |
| 20260509081359 | 15 | 148 | 0.0 | 0.0 | 0.00 | 0.00 | 0.00 | 75 | 1012.6 |
| 20260509080726 | 15 | 141 | 0.0 | 0.0 | 0.00 | 0.00 | 0.00 | 76 | 1012.6 |
| 20260509075746 | 15 | 66 | 0.0 | 0.0 | 0.00 | 0.00 | 0.00 | 78 | 1012.5 |
| 20260509074749 | 14 | 85 | 0.0 | 0.0 | 0.00 | 0.00 | 0.00 | 79 | 1012.6 |
| 20260509074340 | 14 | 84 | 0.0 | 0.0 | 0.00 | 0.00 | 0.00 | 80 | 1012.6 |
| 20260509073747 | 13 | 84 | 0.0 | 0.0 | 0.00 | 0.00 | 0.00 | 80 | 1012.8 |
| 20260509072733 | 13 | 69 | 0.0 | 1.6 | 0.00 | 0.00 | 0.00 | 81 | 1012.6 |
| 20260509071739 | 12 | 72 | 0.0 | 0.0 | 0.00 | 0.00 | 0.00 | 83 | 1012.6 |
| 20260509071334 | 12 | 69 | 0.0 | 0.0 | 0.00 | 0.00 | 0.00 | 84 | 1012.6 |
| 20260509070743 | 12 | 146 | 0.0 | 0.0 | 0.00 | 0.00 | 0.00 | 85 | 1012.6 |
| 20260509065755 | 12 | 56 | 0.0 | 0.0 | 0.00 | 0.00 | 0.00 | 86 | 1012.6 |
| 20260509064741 | 11 | 56 | 0.0 | 0.0 | 0.00 | 0.00 | 0.00 | 87 | 1012.7 |
| 20260509064334 | 11 | 56 | 0.0 | 0.0 | 0.00 | 0.00 | 0.00 | 87 | 1012.7 |
| 20260509063742 | 11 | 56 | 0.0 | 0.0 | 0.00 | 0.00 | 0.00 | 87 | 1012.6 |
| 20260509062750 | 11 | 57 | 0.0 | 0.0 | 0.00 | 0.00 | 0.00 | 88 | 1012.7 |
| 20260509061755 | 10 | 56 | 0.0 | 0.0 | 0.00 | 0.00 | 0.00 | 89 | 1012.7 |
| 20260509061328 | 10 | 57 | 0.0 | 0.0 | 0.00 | 0.00 | 0.00 | 89 | 1012.7 |
| 20260509060735 | 10 | 56 | 0.0 | 0.0 | 0.00 | 0.00 | 0.00 | 89 | 1012.7 |
| 20260509055725 | 10 | 56 | 0.0 | 0.0 | 0.00 | 0.00 | 0.00 | 89 | 1012.7 |
| 20260509054731 | 9 | 56 | 0.0 | 3.2 | 0.00 | 0.00 | 0.00 | 88 | 1012.7 |
| 20260509054345 | 9 | 68 | 0.0 | 4.8 | 0.00 | 0.00 | 0.00 | 88 | 1012.6 |
| 20260509053733 | 8 | 68 | 0.0 | 4.8 | 0.00 | 0.00 | 0.00 | 87 | 1012.6 |
| 20260509052737 | 8 | 68 | 0.0 | 0.0 | 0.00 | 0.00 | 0.00 | 85 | 1012.5 |
| 20260509051742 | 8 | 68 | 0.0 | 0.0 | 0.00 | 0.00 | 0.00 | 84 | 1012.5 |
| 20260509051334 | 8 | 68 | 0.0 | 4.8 | 0.00 | 0.00 | 0.00 | 84 | 1012.4 |
| 20260509050738 | 8 | 68 | 0.0 | 4.8 | 0.00 | 0.00 | 0.00 | 83 | 1012.5 |
| 20260509045724 | 8 | 68 | 0.0 | 3.2 | 0.00 | 0.00 | 0.00 | 83 | 1012.4 |
| 20260509044732 | 8 | 68 | 1.6 | 3.2 | 0.00 | 0.00 | 0.00 | 82 | 1012.4 |
| 20260509044344 | 8 | 68 | 0.0 | 0.0 | 0.00 | 0.00 | 0.00 | 82 | 1012.4 |
| 20260509043731 | 8 | 68 | 0.0 | 1.6 | 0.00 | 0.00 | 0.00 | 82 | 1012.3 |
| 20260509042737 | 8 | 68 | 0.0 | 0.0 | 0.00 | 0.00 | 0.00 | 81 | 1012.4 |
| 20260509041740 | 9 | 68 | 0.0 | 0.0 | 0.00 | 0.00 | 0.00 | 81 | 1012.3 |
| 20260509041354 | 9 | 68 | 0.0 | 0.0 | 0.00 | 0.00 | 0.00 | 81 | 1012.4 |
| 20260509040741 | 9 | 68 | 0.0 | 0.0 | 0.00 | 0.00 | 0.00 | 81 | 1012.3 |
| 20260509035728 | 9 | 68 | 0.0 | 0.0 | 0.00 | 0.00 | 0.00 | 81 | 1012.3 |
| 20260509034733 | 9 | 68 | 0.0 | 0.0 | 0.00 | 0.00 | 0.00 | 81 | 1012.2 |
| 20260509034346 | 9 | 68 | 0.0 | 1.6 | 0.00 | 0.00 | 0.00 | 81 | 1012.3 |
| 20260509033732 | 9 | 68 | 0.0 | 1.6 | 0.00 | 0.00 | 0.00 | 81 | 1012.3 |
| 20260509032740 | 10 | 68 | 0.0 | 0.0 | 0.00 | 0.00 | 0.00 | 81 | 1012.4 |
| 20260509031726 | 10 | 68 | 0.0 | 0.0 | 0.00 | 0.00 | 0.00 | 81 | 1012.4 |
| 20260509031341 | 10 | 68 | 0.0 | 0.0 | 0.00 | 0.00 | 0.00 | 81 | 1012.4 |
| 20260509030727 | 10 | 68 | 0.0 | 0.0 | 0.00 | 0.00 | 0.00 | 81 | 1012.4 |
| 20260509025752 | 10 | 68 | 1.6 | 3.2 | 0.00 | 0.00 | 0.00 | 81 | 1012.3 |
| 20260509024755 | 10 | 68 | 0.0 | 1.6 | 0.00 | 0.00 | 0.00 | 81 | 1012.4 |
| 20260509024327 | 10 | 68 | 0.0 | 0.0 | 0.00 | 0.00 | 0.00 | 81 | 1012.5 |
| 20260509023733 | 10 | 68 | 0.0 | 0.0 | 0.00 | 0.00 | 0.00 | 81 | 1012.6 |
| 20260509022739 | 10 | 68 | 0.0 | 4.8 | 0.00 | 0.00 | 0.00 | 81 | 1012.5 |
| 20260509021725 | 10 | 68 | 0.0 | 0.0 | 0.00 | 0.00 | 0.00 | 81 | 1012.6 |
| 20260509021405 | 10 | 68 | 0.0 | 0.0 | 0.00 | 0.00 | 0.00 | 81 | 1012.6 |